Regional Weather Roundup
Issued by NWS Newport/Morehead, NC

Current Version | Previous Version | Graphics & Text | Print | Product List | Glossary Off
Versions: 1 2 3 4 5 6 7 8 9 10 11 12 13 14 15 16 17 18 19 20 21 22 23 24 25 26 27 28 29 30 31 32 33 34 35 36 37 38 39 40 41 42 43 44 45 46 47 48 49 50

000
ASUS42 KMHX 181325
RWRMHX
WEATHER ROUNDUP FOR EASTERN NORTH CAROLINA
NATIONAL WEATHER SERVICE NEWPORT/MOREHEAD CITY NC
800 AM EST THU JAN 18 2018

NOTE: "FAIR" INDICATES FEW OR NO CLOUDS BELOW 12,000 FEET
WITH NO SIGNIFICANT WEATHER AND/OR OBSTRUCTIONS TO VISIBILITY

NCZ015>017-031-032-045>047-102-103-181400-
NORTH COAST

CITY           SKY/WX    TMP DP  RH WIND       PRES   REMARKS
EDENTON        FAIR      23  14  70 NW7       30.23R
ELIZABETH CITY FAIR      22  11  62 NW17G24   30.19S WCI   8
KITTY HAWK     PTSUNNY   24  18  78 NW12      30.14R WCI  13
MANTEO         CLOUDY    24  16  71 N14       30.17R WCI  12

$$

NCZ045>047-081-094-103-104-181400-
CENTRAL COAST

CITY           SKY/WX    TMP DP  RH WIND       PRES   REMARKS
FRISCO         FAIR      26  21  81 NW14G26   30.15R WCI  14

$$

NCZ095-097-098-100-101-181400-
SOUTHERN COAST

CITY           SKY/WX    TMP DP  RH WIND       PRES   REMARKS
BEAUFORT       FLURRIES  25  16  68 NW20      30.22R WCI  11
CEDAR ISLAND   NOT AVBL
JACKSONVILLE   FAIR      23  16  74 NW15      30.26R WCI  10
PINEY ISLAND   NOT AVBL
WILMINGTON     FAIR      23  15  71 W16       30.30R WCI  10


$$

NCZ011>013-027>030-043-044-078>080-089-090>093-098-181400-
COASTAL PLAIN

CITY           SKY/WX    TMP DP  RH WIND       PRES   REMARKS
AHOSKIE        FAIR      17  12  82 CALM      30.26R
CLINTON        FAIR      20  14  79 CALM      30.33R
ELIZABETHTOWN  NOT AVBL
GOLDSBORO      FAIR      19  11  69 NW9       30.28R
GREENVILLE     FAIR      21  12  68 NW8       30.27R
HAVELOCK       CLEAR     25  16  68 NW12      30.24R WCI  14
KENANSVILLE    FAIR      21  12  68 NW12      30.31R WCI   9
KINSTON        CLEAR     21  12  68 NW5       30.28R
NEW BERN       FAIR      23  16  74 NW9       30.25R
RICHLANDS      FAIR      22  15  75 W6        30.28R
ROCKY MOUNT    FAIR      16  11  80 W5        30.27R
WASHINGTON     FAIR      22  16  75 NW5       30.25R
WHITEVILLE     FAIR      22  13  68 W3        30.33R

$$

AMZ130-135-150-152-154-156-158-170-250-252-270-ANZ085-086-088-633-658-670-181400-
MARINE OBSERVATIONS

STATION/POSITION TIME  TEMP    WIND        PRES    WAVE   SWELL
                       AIR SEA DIR/SP/G            HT/PER HT/PER
                 (UTC) (F)     (DEG/KT/KT) (MB)    (FT/S) (FT/S)
CHESAPEAKE LIGHT NOT AVBL
64 E VA BEACH    1250   33 55  330/ 31/ 39 1016.9   10/ 6   5/10
DUCK             1300   25 38  320/ 22/ 27 1020.1
2 E DUCK         1300      40                N/A     8/ 7   2/11
OREGON INLET     1300   25 37  310/ 18/ 24 1020.6
13E OREGON INLT  1248      43                N/A    11/ 8   8/ 8
HATTERAS CG      1300   26 39  320/ 23/ 27 1020.8
DIAMOND BUOY     1300   30 55  320/ 27/ 33 1020.3
CAPE LOOKOUT     1300          330/ 20/ 23 1023.0
BEAUFORT LAB     1300   26 44  340/ 13/ 19 1023.2
30 SE NEW RVR IN 1208   32 60   10/ 19/ 29 1023.3
30 SE NEW RVR IN 1300      60                N/A     7/ 6   2/11
27 SE WRIGHTSVLE 1208   32 61  340/ 23/ 33 1023.8
5 SE WRIGHTSVLE  1308   27 47  320/ 16/ 23 1024.8
225 S CAPE HAT   1250   53 70  300/ 31/ 39 1017.1   14/10  11/10
41 SE CHARLESTON 1300   35 67  330/ 21/ 25 1026.8

$$




USA.gov is the U.S. government's official web portal to all federal, state and local government web resources and services.